Location: Newark
(34.0111°N, 88.4892°W)
Time: 10:17:05
(UTC+00:00)

METEOR M2 - Visible Passes

Search period start: 29 July 2021 00:00
Search period end: 08 August 2021 00:00
Orbit: 819 x 827 km, 98.5° (Epoch: 28 July)

Date Brightness Start Highest point End Pass type
(mag) Time Alt. Az. Time Alt. Az. Time Alt. Az.
29 Jul ? 01:28:36 10° SSW 01:33:28 35° W 01:38:23 10° NNW visible
01 Aug ? 02:11:35 10° WSW 02:14:12 14° W 02:16:50 10° WNW visible
02 Aug ? 01:50:02 10° SW 01:54:06 22° W 01:58:13 10° NW visible
03 Aug ? 01:29:14 10° SSW 01:34:05 34° W 01:38:57 10° NNW visible
04 Aug ? 01:08:52 10° S 01:14:06 54° W 01:19:22 10° NNW visible
06 Aug ? 02:12:19 10° WSW 02:14:49 13° W 02:17:18 10° WNW visible
07 Aug ? 01:50:42 10° SW 01:54:43 21° W 01:58:45 10° NW visible
